EW6950 Weather Reports


Display with metric or nautical units.
time (UTC)temp
F
wind
direction
speed
MPH
gust
MPH
rain 1hr
in
rain 24hr
in
rain mn
in
humidity
%
barometer
mb
20191112141805 41 202 6.0 15.0 0.00 0.26 0.09 93 1001.6
20191112140805 41 286 6.0 20.0 0.00 0.26 0.09 93 1001.6
20191112135805 42 173 5.0 14.0 0.01 0.26 0.09 94 1001.5
20191112134805 41 195 6.0 14.0 0.02 0.26 0.09 94 1001.6
20191112133804 41 207 5.0 14.0 0.02 0.26 0.09 95 1001.4
20191112132805 41 180 4.0 11.0 0.02 0.26 0.09 95 1001.5
20191112131805 40 175 5.0 14.0 0.02 0.26 0.09 95 1001.5
20191112130805 40 212 6.0 18.0 0.02 0.26 0.09 95 1001.7
20191112125804 40 207 5.0 12.0 0.02 0.25 0.09 95 1001.7
20191112124805 40 172 5.0 11.0 0.02 0.24 0.08 95 1001.7
20191112123805 40 194 6.0 12.0 0.02 0.24 0.08 95 1001.7
20191112122805 40 211 6.0 13.0 0.02 0.24 0.08 95 1001.9
20191112121805 40 109 5.0 14.0 0.02 0.24 0.07 95 1001.9
20191112120805 40 226 6.0 15.0 0.02 0.24 0.07 95 1002.0
20191112115804 40 182 5.0 15.0 0.02 0.23 0.06 95 1002.0
20191112114805 40 192 5.0 12.0 0.01 0.22 0.06 95 1002.0
20191112113804 40 165 6.0 12.0 0.01 0.22 0.06 95 1002.0
20191112112804 40 176 6.0 15.0 0.02 0.22 0.06 95 1002.1
20191112111804 40 193 5.0 13.0 0.02 0.22 0.06 95 1002.3
20191112110805 40 207 5.0 12.0 0.01 0.21 0.05 95 1002.4
20191112105805 40 200 5.0 17.0 0.01 0.21 0.05 95 1002.5
20191112104804 40 141 6.0 12.0 0.01 0.21 0.05 95 1002.5
20191112103804 40 130 6.0 12.0 0.01 0.21 0.05 95 1002.5
20191112102804 40 165 6.0 16.0 0.00 0.20 0.04 95 1002.7
20191112101804 40 196 6.0 16.0 0.00 0.20 0.04 94 1002.8
20191112100804 40 184 8.0 19.0 0.00 0.20 0.04 95 1002.7
20191112095804 40 205 7.0 14.0 0.00 0.20 0.04 95 1002.6
20191112094805 40 198 8.0 16.0 0.00 0.20 0.04 95 1002.7
20191112093805 40 185 7.0 18.0 0.01 0.20 0.04 95 1002.6
20191112092806 40 195 6.0 14.0 0.01 0.20 0.04 95 1002.5
20191112091805 40 188 6.0 12.0 0.02 0.20 0.04 95 1002.5
20191112090805 40 233 7.0 15.0 0.02 0.20 0.04 95 1002.5
20191112085805 39 146 8.0 17.0 0.02 0.20 0.04 95 1002.5
20191112084805 40 200 6.0 14.0 0.02 0.20 0.04 95 1002.6
20191112083804 40 184 6.0 11.0 0.01 0.20 0.03 95 1002.6
20191112082805 40 164 6.0 12.0 0.01 0.20 0.03 95 1002.6
20191112081804 40 167 4.0 9.0 0.00 0.19 0.02 95 1002.6
20191112080804 39 217 4.0 13.0 0.00 0.19 0.02 95 1002.6
20191112075806 39 177 4.0 15.0 0.00 0.19 0.02 95 1002.6
20191112074804 39 194 5.0 12.0 0.00 0.19 0.02 95 1002.8
20191112073801 39 178 6.0 15.0 0.00 0.19 0.02 95 1002.8
20191112072802 39 148 5.0 14.0 0.00 0.19 0.02 95 1003.0
20191112071801 39 109 7.0 17.0 0.00 0.19 0.02 95 1003.0
20191112070801 39 122 6.0 16.0 0.01 0.19 0.02 95 1002.9
20191112065801 39 211 6.0 15.0 0.01 0.19 0.02 95 1002.9
20191112064802 39 170 5.0 15.0 0.01 0.19 0.02 95 1002.8
20191112063801 39 159 6.0 14.0 0.01 0.19 0.02 95 1002.8
20191112062802 39 193 5.0 10.0 0.01 0.19 0.02 95 1003.0
20191112061802 39 121 5.0 14.0 0.01 0.19 0.02 95 1003.1
20191112060802 39 204 5.0 12.0 0.00 0.18 0.02 95 1003.2
20191112055803 39 169 5.0 12.0 0.00 0.18 0.02 95 1003.3
20191112054802 39 182 5.0 11.0 0.01 0.18 0.02 95 1003.5
20191112053802 39 184 5.0 18.0 0.01 0.18 0.02 95 1003.5
20191112052802 39 186 4.0 8.0 0.01 0.18 0.02 95 1003.5
20191112051802 39 118 5.0 16.0 0.01 0.18 0.02 95 1003.4
20191112050802 39 225 5.0 9.0 0.01 0.18 0.02 95 1003.6
20191112045802 39 225 4.0 10.0 0.01 0.18 0.02 95 1003.6
20191112044802 39 116 4.0 11.0 0.00 0.17 0.01 95 1003.7
20191112043802 39 180 5.0 11.0 0.00 0.17 0.01 95 1003.7
20191112042802 39 163 5.0 11.0 0.00 0.17 0.01 95 1003.8
20191112041802 39 169 4.0 10.0 0.00 0.17 0.01 95 1003.9
20191112040802 39 171 5.0 14.0 0.01 0.17 0.01 95 1004.0
20191112035802 39 113 4.0 10.0 0.01 0.17 0.01 95 1004.1
20191112034802 39 171 5.0 12.0 0.01 0.17 0.01 95 1004.1
20191112033802 39 216 4.0 12.0 0.01 0.17 0.01 95 1004.2
20191112032802 39 183 4.0 9.0 0.01 0.17 0.01 95 1004.2
20191112031802 39 150 3.0 10.0 0.00 0.17 0.00 95 1004.3
20191112030802 39 137 3.0 10.0 0.00 0.17 0.00 95 1004.2
20191112025802 39 171 4.0 9.0 0.00 0.17 0.00 95 1004.6
20191112024802 39 183 5.0 13.0 0.00 0.17 0.00 95 1004.5
20191112023802 39 169 5.0 12.0 0.00 0.17 0.00 95 1004.7
20191112022802 39 165 5.0 12.0 0.00 0.17 0.00 95 1004.8
20191112021802 39 176 4.0 8.0 0.00 0.17 0.00 95 1004.7
20191112020801 39 159 4.0 9.0 0.00 0.17 0.00 95 1004.8
20191112015801 39 215 3.0 7.0 0.00 0.17 0.00 95 1004.8
20191112014802 39 190 3.0 6.0 0.00 0.17 0.00 95 1004.9
20191112013802 39 186 4.0 13.0 0.00 0.17 0.00 95 1004.9
20191112012801 39 165 3.0 6.0 0.00 0.17 0.00 95 1004.9
20191112011802 39 201 4.0 9.0 0.00 0.17 0.00 95 1004.9
20191112010801 40 200 4.0 9.0 0.00 0.17 0.00 95 1004.9
20191112005802 40 192 3.0 8.0 0.00 0.17 0.00 96 1004.9
20191112004801 39 211 4.0 10.0 0.00 0.17 0.00 96 1004.9
20191112003802 39 234 3.0 8.0 0.00 0.17 0.00 95 1004.9
20191112002802 39 257 3.0 8.0 0.00 0.17 0.00 95 1004.9
20191112001802 39 188 4.0 10.0 0.00 0.17 0.00 95 1005.0
20191112000803 39 168 3.0 7.0 0.00 0.17 0.00 95 1005.0
20191111235801 39 167 2.0 6.0 0.00 0.17 0.00 95 1004.9
20191111234802 39 183 3.0 6.0 0.00 0.17 0.00 95 1004.9
20191111233802 39 162 3.0 7.0 0.00 0.17 0.00 95 1004.9
20191111232802 39 204 3.0 7.0 0.00 0.17 0.00 95 1004.8
20191111231802 39 209 3.0 7.0 0.00 0.17 0.00 95 1005.0
20191111230802 38 190 2.0 6.0 0.01 0.17 0.00 95 1005.0
20191111225802 38 195 1.0 3.0 0.01 0.17 0.17 95 1004.9
20191111224801 38 192 1.0 4.0 0.01 0.17 0.17 95 1004.9
20191111223802 38 165 1.0 3.0 0.01 0.17 0.17 95 1004.9
20191111222802 38 189 1.0 3.0 0.01 0.17 0.17 95 1004.9
20191111221802 38 164 1.0 2.0 0.01 0.17 0.17 95 1004.9
20191111220802 38 182 1.0 4.0 0.00 0.16 0.16 95 1004.8
20191111215802 38 182 1.0 2.0 0.00 0.16 0.16 95 1004.7
20191111214802 38 184 1.0 4.0 0.00 0.16 0.16 95 1004.6
20191111213802 38 175 1.0 5.0 0.00 0.16 0.16 95 1004.6
20191111212802 38 175 1.0 4.0 0.00 0.16 0.16 95 1004.6
20191111211802 38 167 2.0 4.0 0.00 0.16 0.16 95 1004.5
20191111210802 38 134 1.0 5.0 0.00 0.16 0.16 95 1004.5
20191111205802 38 201 2.0 5.0 0.00 0.16 0.16 95 1004.4
20191111204801 38 171 2.0 5.0 0.00 0.16 0.16 95 1004.2
20191111203802 38 178 2.0 4.0 0.00 0.16 0.16 95 1004.1
20191111202802 39 189 1.0 4.0 0.00 0.16 0.16 95 1004.0
20191111201802 39 175 1.0 4.0 0.00 0.16 0.16 95 1003.9
20191111200801 39 193 2.0 5.0 0.00 0.16 0.16 95 1003.9
20191111195802 40 199 2.0 5.0 0.00 0.16 0.16 95 1003.8
20191111194802 40 219 2.0 6.0 0.00 0.16 0.16 95 1003.7
20191111193802 40 175 2.0 7.0 0.00 0.16 0.16 95 1003.7
20191111192802 40 200 3.0 11.0 0.00 0.16 0.16 95 1003.4
20191111191801 41 196 3.0 10.0 0.00 0.16 0.16 95 1003.4
20191111190803 41 215 2.0 5.0 0.00 0.16 0.16 95 1003.5
20191111185802 40 182 1.0 4.0 0.00 0.16 0.16 95 1003.4
20191111184802 41 189 1.0 5.0 0.00 0.16 0.16 95 1003.3
20191111183802 41 217 2.0 5.0 0.01 0.16 0.16 95 1003.4
20191111182802 41 176 2.0 7.0 0.01 0.16 0.16 95 1003.3
20191111181801 41 191 1.0 4.0 0.01 0.16 0.16 95 1003.3
20191111180802 41 186 2.0 3.0 0.01 0.16 0.16 95 1003.3
20191111175802 41 202 2.0 5.0 0.02 0.16 0.16 94 1003.3
20191111174802 41 196 2.0 6.0 0.02 0.16 0.16 94 1003.1
20191111173802 41 182 2.0 6.0 0.02 0.15 0.15 94 1003.1
20191111172802 40 200 2.0 5.0 0.02 0.15 0.15 94 1003.1
20191111171803 40 169 3.0 10.0 0.03 0.15 0.15 94 1003.2
20191111170802 40 175 3.0 9.0 0.04 0.15 0.15 94 1003.1
20191111165802 40 237 3.0 10.0 0.05 0.14 0.14 94 1003.1
20191111164802 40 186 4.0 10.0 0.06 0.13 0.13 94 1003.0
20191111163805 40 206 5.0 16.0 0.06 0.13 0.13 94 1003.0
20191111162801 41 166 5.0 10.0 0.08 0.13 0.13 94 1003.0
20191111161802 41 211 7.0 18.0 0.09 0.12 0.12 94 1002.9
20191111160803 42 200 6.0 18.0 0.09 0.10 0.10 94 1002.9
20191111155804 42 220 5.0 13.0 0.08 0.09 0.09 94 1002.8
20191111154801 42 205 6.0 19.0 0.07 0.07 0.07 94 1002.7
20191111153801 42 209 2.0 8.0 0.06 0.06 0.06 94 1002.6
20191111152802 42 192 2.0 5.0 0.04 0.04 0.04 93 1002.5
20191111151802 42 190 2.0 6.0 0.03 0.03 0.03 93 1002.5
20191111150802 42 128 2.0 8.0 0.02 0.02 0.02 93 1002.6
20191111145802 42 108 3.0 11.0 0.01 0.01 0.01 93 1002.6
20191111144802 42 112 4.0 8.0 0.00 0.00 0.00 93 1002.6
20191111143802 42 117 5.0 10.0 0.00 0.00 0.00 93 1002.6
20191111142802 42 114 5.0 11.0 0.00 0.00 0.00 93 1002.7